Lynchburg, VA

10:35 AM EST on November 12, 2019 (GMT -0500)
Lynchburg Regional-Glenn

Weather History for KLYH - September, 2019

Change the Weather History Date:

Wednesday, September 11, 2019

  Actual Average Record
Temperature  
Mean Temperature 82 °F 69 °F  
Max Temperature 97 °F 80 °F 98 °F (1897)
Min Temperature 66 °F 58 °F 43 °F (1917)
Degree Days  
Heating Degree Days 0 1  
Month to date heating degree days 4  
Since 1 July heating degree days 7  
Cooling Degree Days 16 5  
Month to date cooling degree days 65  
Year to date cooling degree days 963  
Growing Degree Days 32 (Base 50)    
Moisture  
Dew Point 67 °F    
Average Humidity 71    
Maximum Humidity 97    
Minimum Humidity 25    
Precipitation  
Precipitation 0.00 in 0.13 in 1.74 in (1950)
Month to date precipitation 1.44  
Year to date precipitation 29.37  
Snow  
Snow 0.00 in - - ()
Month to date snowfall  
Since 1 July snowfall  
Since 1 September snowfall  
Snow Depth -    
Sea Level Pressure  
Sea Level Pressure 30.19 in    
Wind  
Wind Speed 4 mph (SSW)    
Max Wind Speed 15 mph    
Max Gust Speed 25 mph    
Visibility 9 miles    
Events Thunderstorm    
T = Trace of Precipitation, MM = Missing Value Source: NWS Daily Summary

Daily Weather History Graph

Daily Weather History Graph

Search for Another Location

Airport or City:

Astronomy

Sep. 11, 2019 Rise Set
Actual Time 6:55 AM EDT 7:30 PM EDT
Civil Twilight 6:29 AM EDT 7:57 PM EDT
Nautical Twilight 5:58 AM EDT 8:28 PM EDT
Astronomical Twilight 5:26 AM EDT 8:59 PM EDT
Moon 6:38 PM EDT (9/11) 4:20 AM EDT (9/11)
Length of Visible Light 13h 28m
Length of Day
12h 35m
Waxing Gibbous, 94% of the Moon is Illuminated
Sep 11
Waxing Gibbous
Sep 14
Full
Sep 21
Last Quarter
Sep 28
New
Oct 5
First Quarter

Hourly Weather History & Observations

Time (EDT) Temp. Heat Index Dew Point Humidity Pressure Visibility Wind Dir Wind Speed Gust Speed Precip Events Conditions
12:54 AM 72.0 °F - 66.9 °F 84% 30.28 in 10.0 mi SSW 4.6 mph - N/A   Clear
1:54 AM 71.1 °F - 66.9 °F 87% 30.28 in 10.0 mi SW 3.5 mph - N/A   Clear
2:54 AM 68.0 °F - 66.0 °F 93% 30.27 in 10.0 mi Calm Calm - N/A   Clear
3:54 AM 66.9 °F - 66.0 °F 97% 30.25 in 9.0 mi Calm Calm - N/A   Clear
4:54 AM 66.9 °F - 66.0 °F 97% 30.24 in 7.0 mi Calm Calm - N/A   Clear
5:54 AM 66.0 °F - 64.9 °F 96% 30.25 in 7.0 mi Calm Calm - N/A   Clear
6:54 AM 68.0 °F - 66.9 °F 96% 30.25 in 5.0 mi SSW 3.5 mph - N/A   Clear
7:54 AM 70.0 °F - 69.1 °F 97% 30.27 in 7.0 mi SSW 3.5 mph - N/A   Clear
8:54 AM 73.9 °F - 70.0 °F 87% 30.27 in 10.0 mi SSW 8.1 mph - N/A   Clear
9:54 AM 79.0 °F - 71.1 °F 77% 30.27 in 10.0 mi SW 9.2 mph - N/A   Clear
10:54 AM 82.9 °F 87.5 °F 71.1 °F 67% 30.26 in 10.0 mi SSW 10.4 mph - N/A   Clear
11:54 AM 87.1 °F 92.8 °F 71.1 °F 59% 30.23 in 10.0 mi Variable 4.6 mph - N/A   Clear
12:54 PM 91.0 °F 96.6 °F 70.0 °F 50% 30.20 in 10.0 mi Calm Calm - N/A   Clear
1:54 PM 93.9 °F 100.3 °F 70.0 °F 46% 30.17 in 10.0 mi Variable 3.5 mph - N/A   Clear
2:54 PM 95.0 °F 97.4 °F 64.9 °F 37% 30.14 in 10.0 mi Calm Calm - N/A   Partly Cloudy
3:54 PM 97.0 °F 99.9 °F 64.9 °F 35% 30.11 in 10.0 mi Variable 5.8 mph - N/A   Clear
4:54 PM 95.0 °F 96.0 °F 63.0 °F 34% 30.09 in 10.0 mi SSW 5.8 mph - N/A   Clear
5:54 PM 84.0 °F 85.4 °F 64.0 °F 51% 30.12 in 10.0 mi North 13.8 mph 25.3 mph N/A   Mostly Cloudy
6:00 PM 82.9 °F 84.6 °F 64.9 °F 54% 30.15 in 10.0 mi NNE 15.0 mph 25.3 mph N/A Thunderstorm Mostly Cloudy
6:54 PM 81.0 °F 83.0 °F 66.0 °F 60% 30.09 in 10.0 mi Variable 3.5 mph - N/A Thunderstorm Mostly Cloudy
7:20 PM 79.0 °F - 66.9 °F 66% 30.15 in 10.0 mi Variable 4.6 mph - N/A   Partly Cloudy
7:31 PM 79.0 °F - 66.9 °F 66% 30.16 in 10.0 mi SSW 9.2 mph 16.1 mph N/A Thunderstorm Scattered Clouds
7:54 PM 79.0 °F - 66.9 °F 66% 30.14 in 10.0 mi SSW 8.1 mph - N/A Thunderstorm Clear
8:29 PM 75.9 °F - 66.9 °F 74% 30.18 in 10.0 mi SW 6.9 mph - N/A   Scattered Clouds
8:54 PM 73.9 °F - 68.0 °F 82% 30.16 in 10.0 mi South 8.1 mph - N/A   Clear
9:54 PM 73.0 °F - 68.0 °F 84% 30.17 in 10.0 mi SSW 3.5 mph - N/A   Clear
10:54 PM 72.0 °F - 68.0 °F 87% 30.14 in 10.0 mi Calm Calm - N/A   Clear
11:54 PM 71.1 °F - 68.0 °F 90% 30.14 in 10.0 mi SSW 3.5 mph - N/A   Clear